User: anonymous   Login
Location: Morlupo
(42.1333°N, 12.5000°E)
Time: 03:35:31
(UTC+00:00)
Language:

Cosmos 1437 - Orbit

View from above orbital plane
View from above orbital plane
View from above satellite
View from above satellite

Ground track
Ground track

The orbit data is extracted from the following two-line orbital elements,

1 13770U 83003A   21125.13508932  .00018060  00000-0  12450-3 0  9994
2 13770  81.1546 183.8203 0002918 186.5750 173.5473 15.74431589107625
Epoch (UTC): 05 May 2021 03:14:31
Eccentricity: 0.0002918
inclination: 81.1546°
perigee height: 344 km
apogee height: 348 km
right ascension of ascending node: 183.8203°
argument of perigee: 186.5750°
revolutions per day: 15.74431589
mean anomaly at epoch: 173.5473°
orbit number at epoch: 10762

The dashed part of the orbit path shows where the satellite is in the earth's shadow,  

DLR